Minneapolis Flying Cloud, MN

12:01 PM CST on December 14, 2017 (GMT -0600)
Flying Cloud

Weather History for KFCM - May, 2013

Change the Weather History Date:

Tuesday, May 14, 2013

  Actual Average Record
Temperature  
Mean Temperature 76 °F -  
Max Temperature 99 °F 67 °F 99 °F (2013)
Min Temperature 53 °F 46 °F 35 °F (2016)
Cooling Degree Days 10    
Growing Degree Days 26 (Base 50)    
Moisture  
Dew Point 45 °F    
Average Humidity 39    
Maximum Humidity 77    
Minimum Humidity 13    
Precipitation  
Precipitation 0.00 in - - ()
Sea Level Pressure  
Sea Level Pressure 29.59 in    
Wind  
Wind Speed 8 mph (WSW)    
Max Wind Speed 23 mph    
Max Gust Speed 36 mph    
Visibility 10 miles    
Events      
Averages and records for this station are not official NWS values.
T = Trace of Precipitation, MM = Missing Value Source: NWS Daily Summary

Daily Weather History Graph

Daily Weather History Graph

Search for Another Location

Airport or City:

Trip Planner

Search our weather history database for the weather conditions in past years. The results will help you decide how hot, cold, wet, or windy it might be!

Date:

Astronomy

May. 14, 2013 Rise Set
Actual Time 5:46 AM CDT 8:34 PM CDT
Civil Twilight 5:12 AM CDT 9:09 PM CDT
Nautical Twilight 4:29 AM CDT 9:52 PM CDT
Astronomical Twilight 3:38 AM CDT 10:42 PM CDT
Moon 9:26 AM CDT No Moon Set
Length of Visible Light 15h 56m
Length of Day
14h 48m
Waxing Crescent, 19% of the Moon is Illuminated
May 14
Waxing Crescent
May 17
First Quarter
May 24
Full
May 31
Last Quarter
Jun 8
New

Hourly Weather History & Observations

Time (CDT) Temp. Dew Point Humidity Pressure Visibility Wind Dir Wind Speed Gust Speed Precip Events Conditions
12:53 AM 64.0 °F 46.9 °F 54% 29.65 in 10.0 mi SW 5.8 mph - N/A   Clear
1:53 AM 63.0 °F 46.0 °F 54% 29.65 in 10.0 mi SSW 5.8 mph - N/A   Clear
2:53 AM 63.0 °F 46.0 °F 54% 29.66 in 10.0 mi Calm Calm - N/A   Clear
3:53 AM 61.0 °F 46.0 °F 58% 29.66 in 10.0 mi SSW 3.5 mph - N/A   Clear
4:53 AM 59.0 °F 46.0 °F 62% 29.66 in 10.0 mi SSW 3.5 mph - N/A   Clear
5:53 AM 53.1 °F 46.0 °F 77% 29.66 in 10.0 mi Calm Calm - N/A   Clear
6:53 AM 57.9 °F 46.9 °F 67% 29.65 in 10.0 mi SSW 5.8 mph - N/A   Clear
7:53 AM 63.0 °F 46.9 °F 56% 29.67 in 10.0 mi SW 5.8 mph - N/A   Clear
8:53 AM 69.1 °F 48.9 °F 49% 29.63 in 10.0 mi SE 5.8 mph - N/A   Clear
9:53 AM 73.0 °F 48.0 °F 41% 29.66 in 10.0 mi NW 5.8 mph - N/A   Clear
10:53 AM 73.0 °F 52.0 °F 48% 29.65 in 10.0 mi East 3.5 mph - N/A   Mostly Cloudy
11:53 AM 77.0 °F 51.1 °F 40% 29.59 in 10.0 mi ENE 15.0 mph 20.7 mph N/A   Partly Cloudy
12:53 PM 84.9 °F 51.1 °F 31% 29.51 in 10.0 mi ESE 18.4 mph 25.3 mph N/A   Clear
1:53 PM 90.0 °F 46.9 °F 23% 29.49 in 10.0 mi SSE 16.1 mph 35.7 mph N/A   Clear
2:53 PM 93.9 °F 52.0 °F 24% 29.45 in 10.0 mi SSE 10.4 mph 20.7 mph N/A   Clear
3:53 PM 98.1 °F 52.0 °F 21% 29.42 in 10.0 mi NNW 8.1 mph - N/A   Clear
4:53 PM 97.0 °F 48.0 °F 19% 29.44 in 10.0 mi West 19.6 mph 29.9 mph N/A   Clear
5:53 PM 95.0 °F 37.0 °F 13% 29.47 in 10.0 mi WNW 23.0 mph 29.9 mph N/A   Clear
6:53 PM 91.0 °F 36.0 °F 14% 29.49 in 10.0 mi West 19.6 mph 29.9 mph N/A   Clear
7:53 PM 84.9 °F 35.1 °F 17% 29.53 in 10.0 mi West 19.6 mph 28.8 mph N/A   Clear
8:53 PM 79.0 °F 28.9 °F 16% 29.56 in 10.0 mi West 9.2 mph 19.6 mph N/A   Clear
9:53 PM 78.1 °F 35.1 °F 21% 29.60 in 10.0 mi NW 16.1 mph 23.0 mph N/A   Clear
10:53 PM 73.9 °F 39.9 °F 29% 29.63 in 10.0 mi WNW 13.8 mph 25.3 mph N/A   Clear
11:53 PM 71.1 °F 43.0 °F 36% 29.66 in 10.0 mi WNW 15.0 mph 23.0 mph N/A   Clear